Location: Exeidioux
(45.6312°N, 1.6819°E)
Time: 17:21:56
(UTC+00:00)

USA 186 - Pass Details

Date: 03 March 2021
Orbit: 261 x 430 km, 96.9° (Epoch: 08 April)

Event Time Altitude Azimuth Distance (km) Brightness Sun altitude
Exits shadow 20:00:01 11° 319° (NW) 1,077 4.5 -24.5°
Drops below altitude 10° 20:00:14 10° 322° (NW) 1,156 4.7 -24.5°
Sets 20:02:20 0° 337° (NNW) 2,017 5.8 -24.9°
